Location: Bazugues
(43.4465°N, 0.3432°E)
Time: 06:38:52
(UTC+00:00)

Meteor 2-13 Rocket - Pass Details

Date: 28 April 2026
Orbit: 936 x 957 km, 82.5° (Epoch: 19 May)

Event Time Altitude Azimuth Distance (km) Brightness Sun altitude
Rises 04:09:41 0° 124° (ESE) 3,607 7.9 -8.5°
Reaches altitude 10° 04:14:59 10° 85° (E) 2,676 8.1 -7.6°
Maximum altitude 04:15:50 10° 77° (ENE) 2,657 8.3 -7.5°
Drops below altitude 10° 04:16:40 10° 69° (ENE) 2,681 8.6 -7.4°
Sets 04:21:59 0° 30° (NNE) 3,639 8.6 -6.5°
